Temp
21 20 22 20 20 20 20 20 19 19 18 18 18 18 18 19 19 19 18 18 19 19 18 18 17 17 17 17 17 17 16 15 15 15 15 15 15 15 15 14 15 15 14
20 20 18 19 19 21 21 20 20 19 19 18 19 19 19 19 20 19 19 18 18 19 18 18 18 17 17 17 16 16 16 15 15 15 14 14 14 14 15 15 14 14 14
20 20 19 20 20 20 20 20 20 20 19 19 18 16 17 17 18 19 19 19 18 18 19 19 18 18 17 17 17 16 16 15 15 15 15 14 15 13 13 14 14 14 13
19 20 19 18 19 20 20 21 20 20 20 19 19 18 20 20 21 20 20 19 19 18 18 18 19 18 18 17 17 17 16 16 15 15 15 15 15 14 12 12 12 12 12
18 19 20 20 18 20 20 20 20 20 20 20 20 19 19 20 20 20 20 20 19 19 19 19 19 18 18 17 17 17 16 16 15 15 15 14 15 15 15 12 11 11 11
18 19 19 19 19 20 20 19 19 20 21 21 20 20 20 20 19 20 20 20 20 19 19 18 19 19 18 18 18 17 16 16 16 15 15 15 15 14 15 14 12 10 10
18 18 19 19 20 19 21 19 19 19 20 21 21 21 21 21 20 21 21 21 20 20 20 19 19 19 19 18 18 17 17 16 16 16 15 15 15 15 15 14 14 12 10
18 18 19 20 21 21 22 20 20 19 19 22 22 21 21 21 21 21 21 21 21 22 21 20 19 19 18 18 18 18 17 17 17 16 15 15 15 14 14 14 14 11 11
18 18 19 20 21 22 22 23 21 21 20 22 22 21 22 21 21 22 21 22 22 21 21 21 21 20 19 18 18 18 17 17 17 16 16 15 15 14 14 14 14 14 12
18 18 19 20 21 22 22 23 23 22 23 24 23 23 23 22 22 21 22 22 23 22 22 22 21 21 20 19 18 18 17 17 17 16 16 15 15 15 14 14 14 14 14
16 17 18 18 20 21 22 22 23 23 22 22 24 24 23 22 21 21 22 22 22 22 22 23 22 22 21 20 19 18 17 17 17 16 16 15 15 15 14 14 14 14 13
16 15 15 17 18 19 19 20 21 21 22 23 23 23 23 22 20 20 21 21 21 22 22 21 21 21 21 21 20 19 19 18 17 17 16 16 15 15 14 13 14 14 13
9 10 11 13 14 15 17 18 18 19 20 20 21 21 21 21 21 21 21 21 21 21 21 20 20 21 21 20 20 20 19 19 18 17 16 16 16 15 14 13 13 14 13
7 7 7 9 11 12 14 15 17 18 18 18 18 19 19 20 21 21 21 20 20 20 20 21 20 19 20 19 19 19 19 18 17 17 17 15 15 14 14 13 13 13 11
7 6 6 7 8 11 12 13 14 16 17 17 17 18 19 19 20 20 20 20 19 20 19 18 17 17 17 18 18 17 18 18 18 17 16 16 15 14 14 14 13 13 11
6 6 6 6 7 8 9 10 11 14 16 17 19 18 17 18 18 19 19 19 19 19 17 17 17 16 17 17 17 16 17 17 18 17 16 15 14 13 13 13 12 12 11
5 5 5 5 6 8 8 9 10 11 13 16 17 18 17 18 17 18 18 19 18 17 16 16 15 15 16 16 16 16 15 16 17 17 16 15 13 13 12 12 11 11 11
4 4 5 5 5 7 8 8 8 10 11 12 14 16 17 17 15 16 16 16 16 15 15 15 15 15 16 16 16 15 14 15 15 15 16 15 15 13 12 10 11 9 9
6 5 5 4 5 7 8 8 8 8 9 10 11 11 14 15 14 14 15 15 14 13 15 14 14 15 15 15 14 14 14 14 14 14 15 14 14 13 12 10 10 10 9
6 6 5 6 5 6 7 7 7 6 7 8 9 10 11 12 13 13 13 13 13 13 13 13 14 14 14 15 14 14 13 13 13 14 14 13 13 13 12 11 10 9 8
6 6 5 5 6 5 5 6 6 6 5 6 8 9 10 12 13 13 14 14 14 13 13 13 13 13 14 14 13 13 13 13 13 13 13 13 13 11 11 11 10 10 8
5 5 4 5 5 5 4 4 4 4 5 5 6 7 9 9 11 12 13 13 13 13 13 13 13 13 13 13 13 13 12 13 12 12 12 12 11 11 10 10 9 8 5
5 5 5 5 4 4 4 3 3 4 4 5 6 6 8 8 9 10 10 13 13 13 13 13 13 12 12 12 12 12 12 12 12 12 11 11 11 10 8 8 7 4 4
2 3 3 5 5 5 4 3 3 3 4 4 4 5 6 7 8 8 9 9 11 12 12 12 12 12 12 12 12 12 12 12 11 10 10 9 8 6 5 3 3 2 3
2 1 2 1 2 3 4 4 4 4 4 5 5 4 5 6 6 7 8 8 8 9 10 10 11 11 11 11 11 12 12 12 10 10 8 7 6 4 3 2 2 2 2
1 1 1 1 1 2 2 3 4 4 4 4 5 5 5 5 5 6 8 7 8 8 8 8 8 8 9 9 9 9 10 10 9 7 7 6 4 4 3 3 2 1 1
Height
1440 1443 1444 1448 1453 1459 1465 1471 1477 1482 1489 1492 1496 1501 1503 1510 1516 1522 1529 1534 1539 1543 1547 1551 1554 1556 1559 1562 1566 1570 1574 1579 1582 1586 1586 1587 1589 1590 1591 1592 1593 1594 1595
1434 1437 1439 1441 1445 1449 1455 1463 1468 1475 1480 1485 1490 1495 1499 1504 1510 1516 1522 1527 1531 1536 1540 1545 1548 1551 1555 1557 1560 1564 1568 1573 1577 1580 1583 1585 1587 1586 1587 1589 1590 1591 1591
1427 1430 1434 1433 1437 1441 1446 1454 1460 1467 1472 1479 1485 1491 1495 1499 1503 1506 1511 1516 1523 1528 1533 1538 1542 1545 1549 1552 1556 1559 1562 1567 1572 1575 1579 1580 1581 1582 1584 1584 1585 1586 1587
1420 1423 1428 1431 1430 1434 1441 1447 1454 1460 1465 1472 1476 1480 1482 1484 1489 1495 1501 1509 1515 1520 1525 1531 1535 1538 1542 1545 1549 1553 1556 1561 1565 1569 1571 1573 1574 1577 1579 1581 1581 1582 1584
1413 1412 1418 1424 1427 1430 1433 1439 1445 1452 1456 1463 1467 1472 1476 1481 1487 1491 1494 1500 1507 1512 1517 1522 1527 1530 1534 1537 1542 1546 1549 1553 1558 1561 1565 1568 1570 1571 1573 1575 1577 1580 1581
1405 1405 1407 1416 1419 1422 1426 1431 1437 1442 1448 1454 1459 1463 1468 1474 1479 1482 1486 1492 1498 1504 1508 1513 1517 1521 1525 1528 1533 1538 1542 1545 1549 1554 1557 1561 1563 1565 1568 1570 1573 1576 1577
1396 1397 1400 1405 1411 1415 1417 1422 1428 1433 1438 1445 1451 1455 1461 1466 1471 1475 1478 1484 1488 1492 1495 1501 1506 1510 1515 1520 1526 1530 1533 1535 1540 1544 1547 1553 1557 1561 1563 1565 1566 1569 1572
1386 1389 1392 1395 1401 1405 1409 1414 1418 1424 1429 1436 1441 1447 1453 1458 1462 1467 1471 1475 1479 1483 1488 1492 1497 1501 1507 1511 1516 1521 1525 1528 1531 1534 1539 1543 1549 1553 1555 1558 1561 1564 1565
1378 1379 1382 1385 1389 1394 1399 1404 1409 1414 1420 1424 1431 1438 1443 1448 1451 1457 1462 1466 1471 1476 1480 1484 1488 1493 1498 1502 1507 1511 1515 1520 1524 1527 1531 1534 1539 1544 1548 1550 1553 1556 1557
1371 1370 1373 1375 1380 1385 1390 1396 1401 1404 1409 1415 1421 1427 1432 1436 1442 1448 1451 1455 1460 1465 1470 1475 1479 1484 1488 1493 1497 1501 1507 1511 1515 1519 1522 1526 1528 1533 1536 1541 1546 1547 1550
1362 1364 1365 1367 1371 1377 1381 1386 1392 1396 1401 1406 1412 1418 1422 1425 1432 1435 1439 1444 1450 1454 1459 1464 1470 1474 1478 1483 1487 1491 1496 1500 1505 1509 1512 1516 1520 1524 1527 1530 1536 1540 1542
1355 1360 1359 1359 1362 1366 1371 1376 1382 1389 1393 1396 1401 1407 1412 1417 1421 1425 1429 1434 1438 1443 1448 1453 1459 1464 1469 1473 1476 1480 1485 1489 1494 1497 1503 1505 1510 1513 1517 1522 1525 1530 1534
1358 1360 1359 1355 1355 1357 1362 1366 1372 1378 1385 1391 1393 1396 1402 1407 1410 1413 1419 1424 1427 1432 1437 1442 1447 1452 1457 1462 1467 1471 1475 1479 1484 1488 1492 1497 1501 1504 1506 1510 1516 1520 1524
1369 1363 1360 1356 1355 1356 1357 1359 1362 1367 1372 1380 1385 1387 1389 1394 1398 1404 1410 1414 1417 1422 1425 1430 1435 1441 1447 1452 1457 1461 1466 1471 1474 1477 1481 1486 1489 1492 1496 1502 1505 1511 1517
1372 1364 1363 1359 1355 1355 1354 1354 1357 1360 1365 1368 1373 1376 1380 1385 1391 1396 1399 1404 1407 1410 1414 1420 1425 1429 1435 1441 1445 1451 1459 1463 1466 1469 1472 1474 1479 1483 1488 1491 1498 1500 1508
1373 1367 1365 1363 1359 1357 1355 1352 1352 1354 1357 1359 1362 1368 1374 1378 1381 1386 1390 1394 1397 1400 1405 1408 1414 1419 1423 1429 1435 1442 1449 1453 1456 1460 1464 1466 1470 1474 1480 1484 1487 1478 1491
1372 1366 1364 1361 1361 1362 1359 1355 1352 1351 1352 1353 1355 1359 1365 1368 1372 1377 1381 1384 1387 1392 1394 1399 1404 1409 1413 1419 1425 1432 1438 1444 1447 1451 1455 1459 1463 1468 1473 1478 1480 1485 1486
1370 1365 1361 1359 1362 1362 1360 1357 1353 1351 1351 1350 1351 1352 1356 1359 1364 1367 1370 1375 1378 1382 1385 1390 1395 1401 1404 1409 1416 1422 1428 1434 1439 1444 1447 1451 1456 1461 1466 1470 1473 1477 1478
1371 1366 1360 1360 1361 1359 1357 1355 1352 1350 1349 1348 1346 1347 1347 1350 1354 1357 1361 1366 1370 1375 1378 1384 1387 1391 1395 1400 1408 1414 1418 1424 1430 1435 1439 1443 1448 1452 1459 1461 1466 1470 1474
1372 1370 1368 1362 1358 1357 1357 1357 1354 1352 1352 1349 1346 1344 1344 1344 1347 1350 1354 1359 1364 1368 1372 1376 1378 1382 1386 1392 1399 1406 1409 1415 1421 1425 1430 1436 1440 1443 1449 1455 1458 1463 1466
1376 1375 1373 1365 1361 1359 1359 1360 1357 1356 1356 1353 1344 1341 1338 1338 1340 1345 1349 1353 1357 1360 1364 1367 1371 1375 1379 1384 1391 1396 1400 1406 1410 1416 1422 1427 1431 1438 1443 1447 1451 1455 1459
1379 1378 1374 1370 1363 1363 1363 1363 1361 1361 1357 1355 1344 1344 1339 1339 1339 1339 1342 1345 1349 1353 1356 1360 1363 1369 1375 1379 1385 1388 1394 1399 1404 1410 1416 1422 1426 1432 1435 1437 1441 1448 1457
1383 1380 1376 1372 1371 1371 1368 1365 1364 1361 1356 1352 1347 1346 1343 1340 1340 1339 1336 1337 1342 1345 1349 1354 1359 1364 1368 1372 1378 1382 1387 1391 1399 1403 1410 1414 1417 1420 1426 1430 1435 1442 1452
1382 1378 1374 1371 1370 1369 1369 1367 1363 1362 1358 1353 1349 1346 1346 1346 1342 1341 1339 1339 1339 1341 1345 1350 1353 1359 1363 1368 1372 1375 1380 1384 1392 1397 1401 1406 1410 1416 1422 1430 1435 1443 1449
1379 1377 1375 1373 1372 1371 1370 1368 1365 1360 1359 1358 1352 1347 1348 1347 1345 1345 1342 1341 1341 1341 1343 1347 1351 1356 1359 1364 1368 1371 1374 1378 1383 1388 1392 1398 1403 1412 1418 1426 1431 1438 1446
1378 1374 1372 1371 1369 1366 1363 1362 1361 1360 1358 1356 1351 1349 1349 1348 1346 1344 1343 1342 1342 1344 1344 1347 1349 1352 1356 1360 1363 1365 1368 1373 1377 1380 1385 1390 1396 1402 1408 1416 1423 1432 1438
Wind_Speed
27 27 30 31 37 44 46 47 49 51 51 54 55 53 54 51 48 45 42 40 38 37 35 32 29 29 28 27 25 26 27 25 22 19 17 16 15 14 15 16 14 13 13
31 28 27 32 36 42 46 48 49 50 51 52 53 52 51 49 47 45 44 43 42 40 38 35 34 32 30 29 27 28 30 28 26 23 19 12 14 15 15 16 15 16 15
32 27 27 35 37 41 47 50 49 51 51 50 49 47 45 44 46 48 48 48 45 43 42 39 36 35 33 32 31 31 32 31 29 27 18 10 11 17 13 16 17 17 17
41 37 26 28 38 41 42 47 49 50 51 49 50 50 50 50 50 50 50 49 47 46 45 42 40 38 36 36 34 33 34 33 32 30 32 21 11 13 9 15 16 17 17
40 42 42 31 33 37 41 46 50 49 50 51 51 51 50 47 44 48 49 49 48 48 47 46 44 43 41 39 37 37 38 37 36 33 34 36 26 18 13 11 16 16 17
36 42 44 35 35 37 39 45 49 52 51 51 52 53 51 49 48 47 46 47 48 49 51 50 49 47 45 44 41 39 40 40 39 37 36 37 36 30 22 15 16 19 19
39 39 40 35 37 36 41 44 47 52 53 51 53 54 52 50 49 47 43 43 46 49 52 53 53 52 50 47 45 43 42 44 42 40 40 38 36 30 27 28 21 23 21
38 38 41 44 42 43 44 44 49 50 53 54 54 53 53 54 52 50 47 44 43 40 45 50 53 53 52 50 47 45 45 45 43 43 41 39 37 35 34 31 28 22 23
36 37 44 48 45 45 48 48 49 51 52 53 55 56 56 57 57 53 51 49 45 44 42 42 45 48 52 52 49 48 47 47 45 44 42 42 39 36 35 33 31 29 23
34 35 41 46 50 49 47 49 49 51 53 53 53 52 54 56 57 58 57 53 50 49 46 44 42 43 47 50 50 49 48 49 47 46 45 44 44 39 38 36 33 31 26
27 25 38 37 44 45 49 49 50 50 53 53 49 50 51 54 56 58 59 58 56 54 52 49 47 43 44 47 49 50 49 50 50 48 48 46 45 44 42 38 35 33 29
28 17 13 24 34 39 43 43 47 49 51 50 51 52 51 52 53 55 56 59 60 58 56 54 52 49 46 45 46 49 50 50 51 51 50 49 48 46 45 42 39 36 34
11 4 5 6 7 16 26 31 35 37 43 49 52 52 50 51 53 54 53 54 56 58 58 58 56 54 52 49 46 46 46 46 48 50 50 49 47 46 46 44 42 38 37
16 18 17 21 12 3 7 16 24 31 37 41 46 48 50 50 51 51 51 51 51 54 56 57 58 56 54 52 50 46 43 42 42 45 42 45 47 46 45 46 43 37 38
14 21 21 23 25 15 6 5 12 17 25 33 36 41 41 44 47 47 49 49 50 51 54 54 55 54 53 53 53 46 41 40 39 39 37 38 39 40 40 43 43 39 37
10 13 18 22 34 26 20 12 5 9 17 26 34 35 39 43 46 44 47 49 50 51 52 53 53 52 52 51 52 46 42 41 38 36 35 34 36 39 38 40 45 46 27
11 14 14 19 24 32 33 25 13 4 10 21 29 37 40 42 45 45 46 47 48 49 50 50 50 48 47 45 46 43 42 41 37 34 33 32 30 31 35 37 38 32 41
14 18 17 18 20 22 29 31 26 17 9 7 17 28 38 42 42 44 46 47 46 48 46 46 46 43 42 40 39 39 40 37 34 31 27 24 23 23 30 37 29 36 38
14 17 26 19 19 21 25 28 35 33 22 12 4 12 22 35 37 40 41 43 44 43 42 43 40 39 40 37 35 35 35 33 32 30 27 24 25 27 33 45 38 34 34
11 14 17 25 22 28 23 22 30 36 38 26 15 5 11 16 24 30 35 36 39 39 40 41 35 33 34 33 33 33 32 32 33 30 29 29 30 30 37 42 38 38 39
13 11 11 18 25 29 22 15 24 27 30 34 22 14 7 6 22 28 31 34 36 37 38 35 32 32 32 30 28 29 31 33 33 34 33 36 35 33 37 40 38 36 39
24 19 9 14 19 23 28 22 22 22 25 30 31 26 14 8 5 20 28 30 33 35 35 33 29 30 27 25 24 25 26 24 25 28 31 32 33 39 50 47 44 41 40
20 20 21 16 14 15 18 24 22 27 24 27 27 30 25 14 10 7 7 31 31 29 29 30 28 27 27 26 27 26 23 22 24 24 26 30 37 43 48 48 42 38 36
22 22 21 19 17 15 11 13 14 20 22 25 24 26 26 21 15 10 7 2 14 24 23 24 24 26 26 26 27 27 26 25 26 29 27 29 34 40 40 35 32 35 37
23 22 21 20 19 18 12 10 11 10 14 18 17 22 24 23 17 17 9 5 3 2 6 10 19 20 22 23 23 23 26 28 31 30 28 28 30 34 39 39 39 39 37
25 24 23 24 24 23 21 16 10 11 15 15 13 12 15 18 20 15 17 12 4 1 3 4 6 12 15 12 16 20 23 22 28 30 30 30 35 45 47 47 46 45 45
Wind_Direction
248 237 241 235 228 226 224 223 221 220 218 216 217 218 221 222 223 223 221 220 219 217 215 213 210 209 210 212 212 207 203 200 199 202 211 209 211 221 224 224 230 236 242
251 241 227 233 228 229 226 224 224 223 222 221 222 223 223 224 225 224 221 223 221 220 219 216 215 214 213 211 211 208 204 203 203 205 207 210 217 222 217 226 231 235 236
252 247 234 236 234 230 228 226 224 224 224 224 223 221 223 224 223 224 222 222 222 222 222 221 220 220 218 218 216 212 209 208 209 212 207 206 217 209 212 215 222 225 223
249 252 243 230 236 237 235 232 227 224 225 224 224 223 223 222 223 223 222 223 223 224 224 223 224 225 224 223 223 221 218 215 217 216 216 215 216 192 195 210 213 215 214
238 246 244 238 235 243 240 235 231 226 227 225 226 228 228 229 231 228 228 228 226 226 228 226 225 227 227 228 227 226 222 222 222 221 220 220 225 225 218 202 205 204 202
237 241 247 240 233 245 244 238 232 229 227 227 226 229 230 230 228 231 231 232 232 229 230 229 229 230 229 230 230 230 228 226 225 225 229 229 224 224 221 217 201 206 203
235 239 243 237 232 228 243 240 235 232 228 228 228 229 230 233 234 234 233 233 233 233 233 231 230 231 232 233 233 232 230 227 226 228 229 231 236 238 237 236 222 207 210
232 232 236 240 242 236 237 239 239 235 231 230 231 231 232 232 235 236 238 237 238 238 239 236 234 235 234 234 235 234 232 230 228 230 231 232 235 239 241 240 235 208 211
236 231 237 235 237 237 232 236 238 238 236 235 234 232 233 233 235 238 239 241 242 241 241 242 239 238 239 238 237 234 232 232 230 231 233 234 236 237 241 243 246 235 213
241 236 236 237 235 236 235 234 237 237 237 238 237 238 239 239 238 238 239 240 243 243 241 243 242 241 240 239 239 237 234 234 235 234 235 235 237 236 237 240 243 243 233
238 239 235 231 233 237 237 235 232 236 237 238 237 238 240 241 240 240 242 242 243 244 242 243 242 243 242 239 239 240 237 236 237 238 238 238 239 239 234 234 238 239 230
235 238 224 223 224 229 233 234 233 230 234 237 236 237 239 242 242 241 242 244 245 245 247 245 244 242 242 241 239 240 240 241 240 240 240 241 241 241 238 233 235 236 230
57 94 120 147 167 202 213 219 223 227 235 239 240 241 239 240 243 246 245 244 246 247 247 249 247 246 244 241 241 240 241 243 245 244 243 243 245 244 240 234 231 235 225
40 59 56 62 57 52 193 202 212 220 221 231 237 240 241 241 242 245 246 245 246 246 248 249 250 248 246 245 244 240 241 244 246 248 248 246 247 247 240 234 228 232 221
27 52 49 43 37 30 17 245 218 215 218 219 228 237 243 247 245 245 245 245 245 248 249 250 250 251 249 247 247 242 240 243 247 249 248 247 246 246 243 236 231 225 217
20 44 49 44 44 41 40 33 313 252 232 225 226 231 240 243 244 245 245 245 246 248 248 250 250 249 250 250 250 246 240 239 242 246 246 245 241 238 237 234 236 217 206
4 31 40 40 38 36 38 39 34 355 249 235 233 232 232 237 243 244 243 243 244 246 246 248 247 248 252 252 250 247 240 239 239 238 240 242 243 241 232 224 202 243 244
32 31 35 37 30 27 28 38 43 47 29 271 238 234 234 236 242 245 245 246 244 243 243 244 247 248 251 252 249 243 238 237 237 233 234 233 232 233 235 204 221 222 216
3 26 26 42 29 22 27 32 40 41 39 37 323 243 234 235 239 245 246 246 245 242 238 243 246 245 245 246 243 239 234 233 228 225 222 216 218 229 228 213 214 215 208
350 356 27 25 16 15 16 22 28 32 28 23 26 19 230 234 242 246 243 243 243 240 238 237 242 243 243 240 235 231 227 224 221 215 215 217 229 234 223 216 228 220 215
354 336 351 25 23 14 8 359 7 12 14 16 26 24 25 235 231 236 238 236 236 233 232 232 236 235 234 232 230 223 222 222 220 219 218 219 227 230 229 225 226 231 207
28 22 332 350 4 7 8 20 11 4 11 11 24 19 29 22 2 223 223 228 229 228 226 224 224 227 226 221 219 222 223 225 227 230 231 236 240 226 219 216 218 213 195
2 8 25 33 17 345 359 18 14 356 348 358 12 12 20 16 9 359 228 209 217 217 217 214 213 217 217 213 213 217 220 222 230 232 235 239 232 223 214 217 211 190 189
349 350 353 355 358 17 17 356 5 358 353 352 1 7 4 12 11 3 12 25 203 203 202 208 209 210 214 213 213 211 221 223 227 232 232 233 224 217 210 192 184 190 192
344 344 342 339 337 334 335 342 336 329 336 346 355 355 350 352 6 11 353 359 29 102 198 210 211 212 214 220 223 224 224 228 227 228 220 217 216 197 188 189 186 190 196
338 338 337 332 327 325 323 321 303 299 304 315 342 342 330 338 339 350 360 354 320 278 155 191 214 221 219 215 222 222 224 226 232 223 217 207 199 191 192 190 189 193 193